Terug naar catalogus

STARLINK-5882

ActiefCommunicatieVLEO
NORAD 55936·PAYLOAD·🇺🇸 United States

Gelanceerd Mar 17, 2023 vanaf Vandenberg Space Force Base

Loading…

Volgende Passages (komende 24 uur)

TLE

VersSource: CelesTrak SupGP

Epoch: Sep 15, 2026, 01:54 UTC

1 55936C 23037Y   26258.07965278  .00024980  00000+0  20934-2 0  2580
2 55936  70.0010 146.7737 0002715 274.5179 171.8578 14.98319699    10

Volg STARLINK-5882 in realtime met AllMySat

Download on the App Store